Presure
234 232 220 227 214 277 250 134 187 305 288 318 263 248 238 229 220 197 209 202 200 205 196 207 194 199 195 204 200 197 196 247 280 249 237 209 194 193 182 177 174 192 173 193
229 227 244 245 156 167 277 253 176 266 286 307 259 230 230 217 214 200 199 199 195 186 200 199 196 197 196 192 205 194 188 206 242 239 275 204 204 189 192 192 174 197 176 172
230 241 233 233 223 283 272 250 331 241 288 250 245 224 231 212 207 202 207 204 180 178 200 201 195 193 193 192 194 193 215 194 214 222 287 230 196 192 186 185 181 182 183 194
232 223 207 270 195 274 243 341 295 276 303 228 235 222 226 207 217 191 196 189 182 196 198 199 193 196 186 191 177 188 204 223 200 213 227 266 239 199 199 182 179 188 183 181
240 197 174 186 256 271 318 294 275 284 255 233 216 212 213 211 203 201 199 194 172 179 192 195 192 197 183 173 187 183 203 205 201 203 212 220 252 220 218 205 180 188 193 185
222 229 281 264 245 290 296 265 259 269 227 198 211 208 205 197 193 207 202 186 178 186 190 192 193 191 189 184 176 186 185 191 202 183 202 214 305 250 260 228 190 189 199 194
271 264 278 253 262 262 259 267 255 270 220 205 216 211 196 202 195 202 186 188 196 178 187 192 192 191 192 182 175 193 192 201 200 212 201 198 220 279 254 270 227 204 212 202
259 267 256 237 268 257 255 254 243 242 206 213 215 205 194 207 190 196 184 183 193 181 194 192 184 190 184 182 191 183 190 187 184 194 203 225 192 210 234 270 264 218 226 198
257 260 248 234 255 246 237 240 238 223 209 211 212 210 206 194 205 188 197 195 194 184 181 181 189 181 182 183 176 191 179 185 185 182 201 196 209 197 198 202 287 243 243 216
256 255 242 237 250 234 248 235 230 221 205 191 192 217 193 209 196 202 202 191 183 187 186 180 183 182 178 180 188 183 187 176 183 183 190 192 207 202 210 190 199 202 272 259
257 258 243 231 248 235 229 233 232 223 205 201 200 194 203 203 202 201 195 175 185 179 185 183 181 187 184 189 187 184 178 191 173 142 189 187 181 190 203 201 215 188 201 199
251 264 230 240 247 236 227 230 230 224 216 200 197 210 214 201 200 201 182 187 180 176 178 190 182 184 179 182 184 173 184 177 182 179 178 199 179 193 193 184 187 198 207 202
271 254 232 245 240 238 235 225 225 226 212 219 189 206 212 199 197 200 198 187 188 186 186 177 181 190 182 178 181 184 181 175 184 159 183 190 181 186 182 188 195 211 198 200
275 254 237 277 243 239 233 231 231 217 219 219 204 200 199 198 189 189 192 188 183 191 187 186 184 180 180 185 182 181 184 177 183 188 182 185 185 193 182 184 191 187 171 196
280 283 244 302 242 231 221 233 225 225 219 220 213 213 202 186 193 197 200 190 191 188 190 186 183 186 178 180 182 184 178 183 192 191 176 172 169 186 181 169 172 196 208 185
280 286 256 304 251 228 226 219 223 208 208 213 218 222 214 189 190 190 191 206 193 195 193 190 188 190 185 179 182 181 181 179 183 185 177 195 189 156 191 188 179 198 194 188
283 267 253 305 256 233 230 222 216 230 209 214 222 227 221 200 199 197 196 210 205 192 206 193 189 186 188 187 182 182 183 182 182 187 188 175 172 190 187 187 156 194 198 179
293 263 245 295 250 232 228 222 224 212 213 203 206 219 223 218 203 198 197 195 210 206 198 203 197 205 199 192 188 189 186 185 193 187 192 195 189 189 179 182 191 190 195 196
283 275 295 282 247 240 226 229 217 228 214 209 207 219 221 212 210 218 192 193 197 199 198 195 206 203 195 197 192 194 199 194 193 193 189 189 190 188 190 181 199 195 193 194
279 274 265 285 241 237 236 236 220 212 223 209 219 217 236 224 213 213 213 205 206 210 207 208 200 194 201 204 202 203 197 203 205 197 197 197 185 189 196 194 190 192 199 206
288 287 291 286 245 235 233 223 236 225 217 218 222 214 217 216 210 211 211 217 220 212 205 205 204 203 199 197 195 192 194 200 201 203 203 203 203 196 202 202 207 201 199 196
286 288 291 288 245 231 236 226 237 230 216 211 215 206 210 209 214 221 224 222 214 203 204 208 207 206 207 203 206 202 201 203 199 197 201 202 203 213 210 199 214 212 206 211
280 283 270 244 273 235 229 238 224 223 229 215 210 207 204 205 206 210 210 216 211 213 211 208 204 211 204 200 205 204 211 212 205 206 209 209 211 203 220 221 216 213 209 209
263 269 272 148 261 241 236 230 234 220 231 214 224 213 209 208 206 221 222 213 215 221 221 222 219 214 196 210 213 202 203 203 207 208 212 209 231 223 222 221 214 215 208 206
297 293 286 285 289 289 244 232 225 226 220 220 234 221 222 232 222 221 213 210 210 212 214 219 224 228 223 208 207 218 215 218 214 214 238 225 231 226 215 213 206 205 213 212
299 315 323 326 284 274 281 242 232 222 181 225 219 222 217 212 211 213 214 212 212 212 212 212 211 213 211 212 216 217 214 221 212 223 215 220 217 213 212 213 212 211 211 212
Wind_Speed
83 83 75 78 70 67 63 44 50 41 49 42 44 52 34 37 40 32 37 36 34 34 33 26 23 22 15 21 14 17 20 12 17 37 46 64 57 61 50 54 55 70 52 74
83 80 76 74 50 57 55 50 48 38 47 44 46 44 38 38 39 35 34 32 35 30 31 26 23 19 16 14 15 12 18 18 11 15 32 53 69 53 61 64 56 74 63 52
79 80 76 69 46 54 52 49 35 43 48 41 45 38 43 38 40 35 36 35 29 31 29 25 22 18 15 13 12 12 16 19 15 14 18 55 55 60 58 63 63 68 71 76
77 69 59 57 48 48 44 35 40 43 51 40 43 39 44 43 40 31 32 31 32 33 27 25 23 20 17 13 20 11 16 16 17 13 13 19 51 67 66 62 58 74 74 69
75 53 40 38 45 41 26 37 40 50 46 44 44 43 44 41 41 43 41 40 37 33 30 26 25 22 17 24 13 13 15 15 17 15 12 14 24 45 66 72 58 65 73 78
65 48 47 40 36 22 32 33 42 49 43 37 46 47 40 45 45 47 42 32 35 32 33 26 28 22 19 20 19 13 14 17 15 19 14 13 13 25 31 52 61 62 72 72
57 49 39 33 31 31 35 37 45 44 43 45 51 52 41 51 46 48 38 35 36 34 33 28 26 25 21 21 22 18 17 16 16 14 16 16 14 14 22 20 53 59 62 69
54 42 35 31 33 35 34 42 46 51 43 50 54 50 51 55 43 42 38 37 38 31 31 27 26 25 22 22 20 19 19 15 18 12 13 18 18 13 16 19 27 48 55 58
51 40 38 32 41 42 44 46 50 53 49 55 55 60 63 43 50 46 48 42 38 31 34 29 29 30 27 26 26 20 21 20 18 18 17 13 16 17 17 17 13 34 45 50
49 41 40 37 46 44 49 51 53 52 46 47 48 64 53 49 48 51 46 36 34 33 35 37 35 35 33 28 28 24 24 29 22 23 16 15 19 14 17 21 19 22 20 29
49 43 41 40 50 49 48 56 55 57 53 56 56 52 57 53 51 49 45 38 39 38 42 44 38 37 33 30 29 28 25 25 33 31 24 19 24 19 14 15 19 25 22 27
49 47 46 48 52 52 55 54 60 61 60 57 54 63 65 58 48 50 42 44 40 41 44 48 42 40 36 34 32 30 33 29 27 30 32 31 26 19 22 29 25 22 23 27
59 46 50 54 55 53 61 60 61 65 60 65 53 63 65 56 49 50 52 48 51 51 50 42 44 45 41 37 38 38 37 31 34 39 31 31 26 27 30 33 24 24 24 25
54 50 54 48 63 58 65 64 62 63 63 65 62 63 59 60 51 49 50 50 50 54 52 53 53 48 44 46 45 44 43 36 37 40 38 37 36 37 36 35 31 36 43 30
51 50 60 39 67 60 58 66 64 61 68 64 65 65 66 57 62 60 59 54 57 55 57 55 53 56 47 47 49 47 41 41 43 44 39 40 41 41 38 43 43 41 42 42
49 48 59 44 73 63 62 60 67 61 61 64 64 64 68 65 59 60 60 62 55 59 61 59 58 59 57 52 53 50 49 46 45 45 44 47 44 42 47 44 44 47 45 43
48 54 61 48 75 72 69 67 64 67 68 58 62 63 68 73 70 68 67 64 64 57 63 64 61 57 59 61 57 57 56 53 51 53 53 45 43 53 49 47 49 49 51 46
46 56 61 52 73 71 74 70 70 69 69 66 63 64 68 70 70 69 69 65 68 65 62 64 61 65 68 69 65 66 63 59 64 56 60 59 56 57 54 54 55 53 53 54
49 52 49 62 78 78 71 74 68 72 71 71 70 67 67 67 69 69 65 68 70 68 65 61 62 62 62 65 64 66 66 66 64 63 60 59 60 60 61 54 64 64 57 58
49 52 62 58 79 78 75 74 73 67 75 72 69 65 68 75 70 74 77 74 76 73 71 67 64 64 64 64 65 65 64 66 68 67 67 66 57 63 70 68 64 67 70 68
50 52 54 60 82 79 76 69 77 80 72 71 69 70 70 68 73 75 76 75 76 76 71 70 70 70 67 65 64 62 63 65 67 69 72 73 72 70 71 71 70 71 70 69
49 50 53 57 82 80 78 69 77 81 73 68 72 67 70 69 71 74 78 78 72 61 64 69 69 69 71 70 71 71 71 73 73 70 74 73 73 72 70 70 70 70 73 72
48 52 57 68 69 85 72 82 70 73 81 80 72 70 68 67 65 68 69 76 74 75 76 75 70 75 68 65 71 73 76 75 75 77 78 79 78 75 78 73 71 70 71 72
46 47 49 17 66 84 82 77 79 68 79 77 86 78 71 67 63 76 77 78 78 75 76 80 83 80 62 76 77 71 74 77 79 79 80 81 78 78 75 73 72 74 75 77
40 45 49 51 51 56 85 83 81 81 79 78 87 81 84 83 83 79 73 72 71 73 75 79 80 81 81 72 73 78 77 78 77 78 80 78 78 76 75 76 74 76 84 86
34 28 26 29 47 59 61 93 91 85 55 84 78 83 81 77 74 75 77 73 73 74 75 75 76 78 76 78 81 81 80 86 79 87 81 84 82 80 81 84 87 88 92 94
Wind_Direction
280 280 278 285 277 289 286 274 276 266 239 222 206 209 228 206 207 225 228 233 240 241 252 251 259 268 277 292 283 275 282 325 279 241 224 210 217 220 224 227 237 234 254 235
277 281 282 287 239 271 285 274 272 250 235 215 201 214 217 216 214 223 228 236 234 241 247 249 253 263 278 267 294 268 269 287 311 278 257 218 217 218 226 227 237 229 249 249
277 278 283 287 276 281 277 272 243 240 229 207 199 215 211 220 218 217 222 228 238 244 244 246 251 254 268 265 281 273 276 274 284 287 285 221 220 221 222 226 236 238 242 240
276 284 274 288 255 275 270 236 213 219 208 202 200 216 206 216 212 223 223 228 234 241 246 247 251 255 246 256 242 272 289 291 272 286 298 256 230 223 222 224 230 233 241 245
279 272 251 269 274 283 239 198 200 200 204 202 198 210 212 213 211 220 213 224 233 242 246 242 251 256 234 224 266 261 303 303 275 276 291 283 249 228 228 225 232 234 237 241
275 268 281 264 263 257 219 205 206 205 198 204 207 207 208 215 217 211 218 222 229 234 241 239 249 246 244 241 237 267 271 282 294 260 281 300 275 247 244 234 228 234 238 238
274 276 272 254 257 231 225 208 203 200 194 210 207 206 209 215 217 215 219 224 226 236 243 239 243 251 254 243 233 283 285 304 296 326 283 275 312 302 258 261 232 230 235 237
265 268 249 239 227 207 205 200 203 200 195 209 213 209 218 217 215 223 224 221 223 239 237 248 247 257 246 245 267 257 273 268 261 296 313 325 271 297 298 272 255 235 241 243
260 263 234 227 212 211 209 201 202 200 201 209 209 209 213 208 217 215 220 221 225 230 239 242 244 248 250 257 235 262 240 261 261 254 307 293 320 272 269 274 292 261 253 247
256 251 227 224 213 217 206 207 205 206 208 213 214 211 230 214 215 217 220 227 229 233 238 242 241 242 242 248 257 259 263 260 259 258 269 276 310 293 293 262 264 269 277 259
247 246 222 222 214 212 214 210 208 208 210 217 222 223 230 225 214 216 218 229 228 235 237 243 244 247 250 249 252 255 248 268 234 259 275 256 253 257 281 283 303 260 267 268
244 243 217 219 217 210 213 211 210 209 210 217 223 224 221 232 222 217 226 226 233 240 244 238 244 245 249 254 255 240 262 244 264 253 254 285 246 274 268 252 257 272 286 269
242 232 221 218 217 212 209 213 208 211 214 211 221 223 224 234 231 223 219 224 225 228 236 248 253 246 249 254 257 259 258 252 268 250 275 282 257 266 258 270 282 296 281 279
236 226 222 223 214 208 208 209 209 214 216 217 215 224 228 233 233 231 228 228 236 230 230 237 245 251 251 249 255 257 258 259 269 271 266 277 267 283 272 262 274 266 261 277
238 236 218 236 214 210 209 210 212 210 215 220 220 216 226 232 236 236 229 232 229 235 233 238 246 247 252 256 256 259 258 263 270 271 256 254 251 278 263 251 262 287 288 265
238 233 218 227 212 212 211 210 214 217 215 218 222 220 222 233 235 243 244 236 234 231 233 238 243 245 249 254 259 262 264 263 268 269 262 274 273 260 282 279 264 284 283 266
232 223 215 217 210 212 212 212 210 209 217 216 221 222 218 227 232 238 241 244 240 239 231 236 242 249 251 254 258 261 264 266 268 272 274 267 262 279 277 276 263 280 282 261
222 217 217 214 210 212 214 211 209 213 215 219 221 223 223 224 229 233 241 247 246 242 243 241 242 241 245 250 256 260 262 264 267 269 270 272 273 276 273 275 280 277 280 284
219 216 213 210 210 213 215 216 215 212 217 223 223 222 224 226 230 235 239 244 247 250 249 252 251 248 250 252 255 259 259 263 264 264 266 268 271 272 275 273 281 283 281 281
219 216 212 210 211 216 215 213 216 220 218 224 222 224 219 222 232 236 238 238 243 246 250 251 253 256 257 257 257 257 260 261 261 267 269 271 267 272 276 275 275 278 280 282
221 217 214 215 210 216 218 215 214 216 220 221 222 224 230 228 233 239 243 241 239 243 248 252 253 255 259 262 265 267 269 269 269 270 271 271 271 273 274 275 275 277 276 275
220 220 218 217 210 218 221 219 213 217 221 226 226 229 229 230 232 237 241 246 248 250 252 252 253 254 256 259 261 264 267 269 271 271 272 273 274 275 274 274 272 269 272 272
221 219 212 216 214 218 223 220 220 219 222 225 230 233 236 237 239 240 245 246 249 253 255 256 256 257 258 259 262 264 266 267 268 271 272 273 274 275 275 272 269 269 270 271
220 221 222 222 220 216 223 227 227 226 224 229 228 234 240 242 243 241 241 246 250 250 251 252 255 257 257 261 262 263 264 266 267 269 270 270 271 271 270 269 270 271 271 272
227 228 227 225 222 220 220 225 230 232 230 231 231 233 237 240 241 243 244 247 251 253 255 255 257 258 260 262 263 265 265 268 267 269 273 270 271 270 271 274 274 275 277 278
221 220 222 225 221 220 219 221 224 232 233 236 234 235 239 243 246 248 249 250 252 254 257 258 261 264 264 266 269 270 270 272 272 276 275 277 277 277 278 277 277 278 279 279